Análise da corrida

 :: S66

Ir em baixo

Análise da corrida

Mensagem por Gabriel Miranda em Qui Out 11, 2018 10:23 am

New Delhi (India), Época 66


Volta Tempo volta Pos Pneus Tempo Temp (°) Hum (%) Ocorrências
0 - 19 Duros Nublado 35 30 -
1 1:41.867 21 Duros Nublado 35 30 -
2 1:30.131 21 Duros Nublado 35 30 -
3 1:29.537 21 Duros Nublado 35 30 -
4 1:29.391 21 Duros Nublado 35 30 -
5 1:29.850 21 Duros Nublado 35 30 -
6 1:30.277 20 Duros Nublado 35 30 -
7 1:29.787 20 Duros Nublado 35 30 -
8 1:29.638 19 Duros Nublado 35 30 -
9 1:29.579 19 Duros Nublado 35 30 -
10 1:29.189 19 Duros Nublado 35 30 -
11 1:29.251 19 Duros Nublado 35 30 -
12 1:29.419 19 Duros Nublado 35 30 -
13 1:28.683 19 Duros Nublado 35 30 -
14 1:28.995 19 Duros Nublado 36 30 -
15 1:28.634 18 Duros Nublado 37 30 -
16 1:28.242 18 Duros Nublado 37 30 -
17 1:28.633 17 Duros Nublado 37 30 -
18 1:29.245 17 Duros Nublado 37 30 -
19 1:28.240 15 Duros Nublado 38 30 -
20 1:37.092 15 Duros Nublado 38 30 Pit
21 2:01.272 21 Duros Nublado 37 30 -
22 1:29.528 18 Duros Nublado 36 30 -
23 1:35.212 20 Duros Nublado 35 30 Erro do Piloto
24 1:29.260 18 Duros Nublado 34 30 -
25 1:30.293 17 Duros Nublado 33 30 -
26 1:29.543 17 Duros Nublado 33 31 -
27 1:29.603 16 Duros Nublado 33 32 -
28 1:29.011 15 Duros Nublado 34 32 -
29 1:29.142 15 Duros Nublado 35 32 -
30 1:28.924 15 Duros Nublado 35 32 -
31 1:28.918 15 Duros Nublado 35 32 -
32 1:28.775 14 Duros Nublado 35 32 -
33 1:28.820 13 Duros Nublado 35 32 -
34 1:28.506 13 Duros Nublado 35 32 -
35 1:28.620 13 Duros Nublado 35 32 -
36 1:28.354 13 Duros Nublado 35 32 -
37 1:28.155 13 Duros Nublado 35 32 -
38 1:27.538 11 Duros Nublado 35 32 -
39 1:27.284 10 Duros Nublado 35 32 -
40 1:37.571 11 Duros Nublado 35 32 Pit
41 2:03.711 17 Duros Nublado 35 32 -
42 1:29.785 17 Duros Nublado 35 32 -
43 1:29.103 15 Duros Nublado 35 32 -
44 1:29.248 15 Duros Nublado 35 33 -
45 1:28.842 15 Duros Nublado 35 33 -
46 1:28.795 13 Duros Nublado 34 34 -
47 1:29.018 13 Duros Nublado 34 34 -
48 1:28.659 13 Duros Nublado 34 34 -
49 1:28.731 12 Duros Nublado 33 34 -
50 1:28.911 12 Duros Nublado 32 34 -
51 1:28.746 11 Duros Nublado 31 34 -
52 1:28.606 11 Duros Nublado 31 34 -
53 1:28.571 11 Duros Nublado 31 34 -
54 1:28.728 11 Duros Nublado 30 34 -
55 1:28.544 11 Duros Nublado 30 34 -
56 1:28.510 11 Duros Nublado 31 34 -
57 1:28.360 11 Duros Nublado 32 34 -
58 1:27.017 11 Duros Nublado 32 34 -
59 1:27.108 11 Duros Nublado 33 34 -
60 1:26.769 11 Duros Nublado 34 34 -


Riscos usados:
Ultrapassagem Defesa Pista Livre e Seca Pista Livre e Chuva Avaria
30 30 30 30 0

Afinação usada:
Asa Dianteira Asa Traseira Motor Travões Caixa Suspensão
548 999 627 635 557 238

Cha Mot ADiant ATras Carroç Later Refrig Caixa Trav Susp Elec
Nível das peças: 5 5 5 5 5 5 5 5 5 5 5
Desgaste das Peças (no início) (%): 67 29 62 66 66 39 15 21 28 14 12
Desgaste das Peças (no final) (%): 87 65 89 89 84 52 31 45 60 43 23

Combustível inicíal (litros): 74

Pit Razão da paragem Estado pneus (%) Combust. restante (%) Reabast. até (litros) Tempo da paragem (seg)
Paragem 1 (Volta 20): Não havia mais combustível 31 1 74 litros 21.299
Paragem 2 (Volta 40): Não havia mais combustível 31 1 74 litros 24.198

Estado dos pneus após o final (%): 32

Combustível restante no final (litros): 1
Gabriel Miranda
Gabriel Miranda

Mensagens : 1004
Data de inscrição : 29/12/2014
Idade : 45

Voltar ao Topo Ir em baixo

Voltar ao Topo

- Tópicos similares

 :: S66

 
Permissão deste fórum:
Você não pode responder aos tópicos neste fórum